| time (UTC) | temp F | wind direction | speed MPH | gust MPH | rain 1hr in | rain 24hr in | rain mn in | humidity % | barometer mb |
| 20260902191603 | 57 | 0 | 5.0 | 9.0 | 0.00 | 0.07 | 0.07 | 77 | 1011.5 |
| 20260902191103 | 57 | 217 | 2.0 | 10.0 | 0.00 | 0.07 | 0.07 | 77 | 1011.5 |
| 20260902190604 | 57 | 266 | 12.0 | 10.0 | 0.00 | 0.07 | 0.07 | 77 | 1011.5 |
| 20260902183604 | 57 | 268 | 2.0 | 8.0 | 0.00 | 0.07 | 0.07 | 76 | 1011.5 |
| 20260902181604 | 58 | 214 | 5.0 | 12.0 | 0.00 | 0.07 | 0.07 | 74 | 1011.4 |
| 20260902181103 | 58 | 263 | 2.0 | 10.0 | 0.00 | 0.07 | 0.07 | 74 | 1011.4 |
| 20260902174603 | 59 | 178 | 3.0 | 12.0 | 0.00 | 0.07 | 0.07 | 74 | 1011.4 |
| 20260902174104 | 60 | 288 | 6.0 | 9.0 | 0.00 | 0.07 | 0.07 | 74 | 1011.4 |
| 20260902171604 | 60 | 248 | 5.0 | 12.0 | 0.00 | 0.07 | 0.07 | 74 | 1011.4 |
| 20260902171104 | 60 | 269 | 8.0 | 13.0 | 0.00 | 0.07 | 0.07 | 74 | 1011.3 |
| 20260902170604 | 60 | 319 | 2.0 | 13.0 | 0.00 | 0.07 | 0.07 | 74 | 1011.4 |
| 20260902170116 | 60 | 277 | 5.0 | 8.0 | 0.00 | 0.07 | 0.07 | 74 | 1011.4 |
| 20260902163604 | 61 | 314 | 6.0 | 13.0 | 0.00 | 0.07 | 0.07 | 69 | 1011.4 |
| 20260902163103 | 61 | 303 | 5.0 | 15.0 | 0.00 | 0.07 | 0.07 | 68 | 1011.3 |
| 20260902161104 | 62 | 263 | 10.0 | 16.0 | 0.00 | 0.07 | 0.07 | 66 | 1011.4 |
| 20260902160604 | 62 | 329 | 3.0 | 15.0 | 0.00 | 0.07 | 0.07 | 66 | 1011.4 |
| 20260902154604 | 62 | 300 | 9.0 | 15.0 | 0.00 | 0.07 | 0.07 | 63 | 1011.4 |
| 20260902151103 | 64 | 245 | 5.0 | 16.0 | 0.00 | 0.07 | 0.07 | 64 | 1011.3 |
| 20260902150604 | 64 | 238 | 21.0 | 12.0 | 0.00 | 0.07 | 0.07 | 62 | 1011.4 |
| 20260902150115 | 64 | 344 | 1.0 | 12.0 | 0.00 | 0.07 | 0.07 | 64 | 1011.3 |
| 20260902144603 | 63 | 242 | 10.0 | 13.0 | 0.00 | 0.07 | 0.07 | 64 | 1011.3 |
| 20260902144104 | 63 | 261 | 8.0 | 13.0 | 0.00 | 0.07 | 0.07 | 63 | 1011.3 |
| 20260902143103 | 63 | 239 | 5.0 | 16.0 | 0.00 | 0.07 | 0.07 | 63 | 1011.4 |
| 20260902141104 | 63 | 295 | 8.0 | 12.0 | 0.00 | 0.07 | 0.07 | 67 | 1011.2 |
| 20260902134604 | 64 | 273 | 2.0 | 10.0 | 0.00 | 0.07 | 0.07 | 65 | 1011.1 |
| 20260902134103 | 64 | 299 | 3.0 | 12.0 | 0.00 | 0.07 | 0.07 | 63 | 1011.1 |
| 20260902133104 | 65 | 231 | 2.0 | 8.0 | 0.00 | 0.07 | 0.07 | 62 | 1011.2 |
| 20260902131604 | 65 | 246 | 3.0 | 3.0 | 0.00 | 0.07 | 0.07 | 58 | 1011.2 |
| 20260902131104 | 65 | 169 | 5.0 | 13.0 | 0.00 | 0.07 | 0.07 | 59 | 1011.3 |
| 20260902130604 | 65 | 236 | 8.0 | 13.0 | 0.00 | 0.07 | 0.07 | 58 | 1011.3 |
| 20260902124104 | 65 | 241 | 7.0 | 10.0 | 0.00 | 0.07 | 0.07 | 56 | 1011.4 |
| 20260902123104 | 65 | 227 | 7.0 | 12.0 | 0.00 | 0.07 | 0.07 | 58 | 1011.4 |
| 20260902121605 | 65 | 256 | 3.0 | 12.0 | 0.00 | 0.07 | 0.07 | 60 | 1011.4 |
| 20260902110115 | 64 | 238 | 10.0 | 20.0 | 0.00 | 0.07 | 0.07 | 53 | 1011.8 |
| 20260902104104 | 65 | 233 | 5.0 | 8.0 | 0.00 | 0.07 | 0.07 | 53 | 1011.8 |
| 20260902103104 | 64 | 240 | 5.0 | 15.0 | 0.00 | 0.07 | 0.07 | 54 | 1011.8 |
| 20260902094604 | 63 | 246 | 7.0 | 18.0 | 0.00 | 0.07 | 0.07 | 58 | 1011.8 |
| 20260902094104 | 63 | 259 | 7.0 | 18.0 | 0.00 | 0.07 | 0.07 | 56 | 1011.8 |
| 20260902091604 | 63 | 275 | 6.0 | 14.0 | 0.00 | 0.07 | 0.07 | 64 | 1011.8 |
| 20260902091104 | 63 | 281 | 5.0 | 16.0 | 0.00 | 0.07 | 0.07 | 62 | 1011.7 |
| 20260902090604 | 63 | 271 | 14.0 | 16.0 | 0.00 | 0.07 | 0.07 | 66 | 1011.7 |
| 20260902090115 | 63 | 265 | 5.0 | 15.0 | 0.00 | 0.07 | 0.07 | 70 | 1011.6 |
| 20260902083105 | 62 | 265 | 3.0 | 16.0 | 0.00 | 0.07 | 0.07 | 74 | 1011.4 |
| 20260902074604 | 61 | 235 | 5.0 | 12.0 | 0.00 | 0.07 | 0.07 | 87 | 1011.1 |
| 20260902073105 | 61 | 306 | 3.0 | 14.0 | 0.00 | 0.07 | 0.07 | 87 | 1011.1 |
| 20260902071604 | 61 | 239 | 12.0 | 12.0 | 0.00 | 0.07 | 0.07 | 89 | 1011.0 |
| 20260902071103 | 61 | 155 | 7.0 | 14.0 | 0.00 | 0.07 | 0.07 | 90 | 1010.8 |
| 20260902070604 | 60 | 236 | 2.0 | 15.0 | 0.00 | 0.07 | 0.07 | 91 | 1010.9 |
| 20260902063104 | 59 | 232 | 8.0 | 9.0 | 0.00 | 0.07 | 0.07 | 92 | 1010.9 |
| 20260902061604 | 59 | 205 | 5.0 | 9.0 | 0.00 | 0.07 | 0.07 | 93 | 1010.9 |
| 20260902060604 | 59 | 192 | 5.0 | 8.0 | 0.00 | 0.07 | 0.07 | 93 | 1010.9 |
| 20260902060115 | 59 | 234 | 2.0 | 9.0 | 0.00 | 0.07 | 0.07 | 93 | 1010.9 |
| 20260902054604 | 59 | 174 | 8.0 | 8.0 | 0.00 | 0.07 | 0.07 | 93 | 1010.8 |
| 20260902054104 | 59 | 216 | 3.0 | 9.0 | 0.00 | 0.07 | 0.07 | 93 | 1010.8 |
| 20260902051604 | 59 | 193 | 6.0 | 10.0 | 0.00 | 0.07 | 0.07 | 93 | 1010.8 |
| 20260902050117 | 59 | 229 | 5.0 | 8.0 | 0.02 | 0.07 | 0.07 | 94 | 1010.8 |
| 20260902044604 | 58 | 242 | 6.0 | 8.0 | 0.02 | 0.07 | 0.07 | 94 | 1010.7 |
| 20260902044104 | 58 | 178 | 2.0 | 9.0 | 0.02 | 0.07 | 0.07 | 94 | 1010.7 |
| 20260902043604 | 58 | 194 | 5.0 | 9.0 | 0.02 | 0.07 | 0.07 | 94 | 1010.7 |
| 20260902040605 | 58 | 246 | 2.0 | 8.0 | 0.01 | 0.06 | 0.06 | 94 | 1010.8 |
| 20260902034104 | 58 | 231 | 3.0 | 5.0 | 0.03 | 0.05 | 0.05 | 93 | 1010.8 |
| 20260902033604 | 58 | 209 | 2.0 | 5.0 | 0.04 | 0.05 | 0.05 | 93 | 1010.9 |
| 20260902033105 | 58 | 217 | 3.0 | 8.0 | 0.05 | 0.05 | 0.05 | 93 | 1010.9 |
| 20260902031104 | 58 | 192 | 5.0 | 8.0 | 0.05 | 0.05 | 0.05 | 93 | 1011.1 |
| 20260902030604 | 57 | 200 | 5.0 | 7.0 | 0.05 | 0.05 | 0.05 | 92 | 1011.1 |
| 20260902030115 | 57 | 216 | 2.0 | 9.0 | 0.05 | 0.05 | 0.05 | 92 | 1011.2 |
| 20260902024604 | 57 | 202 | 5.0 | 6.0 | 0.04 | 0.04 | 0.04 | 92 | 1011.2 |
| 20260902024104 | 58 | 257 | 3.0 | 3.0 | 0.02 | 0.02 | 0.02 | 91 | 1011.3 |
| 20260902021604 | 58 | 219 | 3.0 | 6.0 | 0.00 | 0.00 | 0.00 | 87 | 1011.4 |
| 20260902021104 | 58 | 242 | 5.0 | 9.0 | 0.00 | 0.00 | 0.00 | 87 | 1011.4 |
| 20260902013604 | 58 | 212 | 5.0 | 6.0 | 0.00 | 0.00 | 0.00 | 86 | 1011.7 |
| 20260902013104 | 58 | 205 | 5.0 | 8.0 | 0.00 | 0.00 | 0.00 | 85 | 1011.6 |
| 20260902011604 | 58 | 292 | 6.0 | 8.0 | 0.00 | 0.00 | 0.00 | 85 | 1011.7 |
| 20260902010115 | 57 | 248 | 2.0 | 10.0 | 0.00 | 0.00 | 0.00 | 86 | 1011.7 |
| 20260902004603 | 57 | 134 | 5.0 | 9.0 | 0.00 | 0.00 | 0.00 | 86 | 1011.6 |
| 20260902003104 | 57 | 207 | 5.0 | 6.0 | 0.00 | 0.00 | 0.00 | 86 | 1011.6 |
| 20260902001603 | 57 | 205 | 5.0 | 12.0 | 0.00 | 0.00 | 0.00 | 86 | 1011.8 |
| 20260901234603 | 57 | 192 | 3.0 | 8.0 | 0.00 | 0.00 | 0.00 | 85 | 1011.8 |
| 20260901234104 | 57 | 170 | 3.0 | 8.0 | 0.00 | 0.00 | 0.00 | 85 | 1011.8 |
| 20260901233103 | 57 | 243 | 5.0 | 8.0 | 0.00 | 0.00 | 0.00 | 84 | 1011.9 |
| 20260901230603 | 57 | 258 | 3.0 | 7.0 | 0.00 | 0.00 | 0.00 | 84 | 1012.1 |
| 20260901224602 | 58 | 180 | 2.0 | 12.0 | 0.00 | 0.00 | 0.00 | 84 | 1012.0 |
| 20260901223603 | 58 | 212 | 1.0 | 8.0 | 0.00 | 0.00 | 0.00 | 84 | 1012.0 |
| 20260901214604 | 59 | 281 | 3.0 | 16.0 | 0.00 | 0.23 | 0.00 | 83 | 1011.9 |
| 20260901214103 | 59 | 201 | 9.0 | 16.0 | 0.00 | 0.23 | 0.00 | 83 | 1011.9 |
| 20260901213103 | 59 | 225 | 5.0 | 21.0 | 0.00 | 0.23 | 0.00 | 83 | 1011.8 |
| 20260901211103 | 59 | 261 | 3.0 | 12.0 | 0.00 | 0.23 | 0.00 | 84 | 1011.6 |
| 20260901210603 | 59 | 263 | 7.0 | 12.0 | 0.00 | 0.23 | 0.00 | 84 | 1011.6 |
| 20260901210114 | 59 | 281 | 3.0 | 10.0 | 0.00 | 0.23 | 0.00 | 84 | 1011.6 |
| 20260901204603 | 60 | 230 | 5.0 | 10.0 | 0.00 | 0.23 | 0.00 | 85 | 1011.6 |
| 20260901204104 | 60 | 221 | 3.0 | 7.0 | 0.00 | 0.23 | 0.00 | 85 | 1011.5 |
| 20260901201603 | 60 | 176 | 2.0 | 12.0 | 0.00 | 0.23 | 0.00 | 86 | 1011.5 |
| 20260901201103 | 60 | 186 | 2.0 | 10.0 | 0.00 | 0.23 | 0.00 | 86 | 1011.6 |
| 20260901200114 | 60 | 232 | 5.0 | 8.0 | 0.00 | 0.23 | 0.00 | 86 | 1011.5 |
| 20260901194603 | 60 | 197 | 3.0 | 7.0 | 0.00 | 0.23 | 0.00 | 85 | 1011.5 |
| 20260901194103 | 60 | 186 | 1.0 | 7.0 | 0.00 | 0.23 | 0.00 | 85 | 1011.5 |
| 20260901193603 | 60 | 173 | 1.0 | 8.0 | 0.00 | 0.23 | 0.00 | 85 | 1011.5 |